Simultaneous Nadir Overpasses (SNOs) Predictions

Prediction of SNOs between LANDSAT-8 and NPP Satellite Orbit:

Table of predicted SNOs for the next 14.0 days since TLE Epoch: 12/12/2015
Index Date (LANDSAT-8) Time (LANDSAT-8) Lat,Lon (LANDSAT-8) SZA (LANDSAT-8 ) Date (NPP) Time (NPP) Lat,Lon (NPP) SZA (NPP ) Distance(km) Time Diff (sec)
1 12/13/2015 21:36:03 70.31,-147.25 93.38 12/13/2015 21:35:40 70.32,-147.30 93.39 2.06 23
2 12/13/2015 22:25:33 -70.19, 20.21 86.74 12/13/2015 22:26:22 -70.22, 20.17 86.72 3.06 49
3 12/16/2015 13:03:05 -70.45, 161.19 86.34 12/16/2015 13:01:52 -70.54, 160.80 86.24 17.20 73
4 12/16/2015 13:52:34 70.24, -31.47 93.46 12/16/2015 13:52:32 70.23, -31.40 93.44 3.37 2
5 12/16/2015 14:42:04 -70.13, 136.00 86.66 12/16/2015 14:43:14 -70.13, 136.08 86.66 2.90 70
6 12/19/2015 05:19:36 -70.32, -83.12 86.37 12/19/2015 05:18:41 -70.35, -83.12 86.34 2.66 55
7 12/19/2015 06:09:03 70.22, 84.37 93.53 12/19/2015 06:09:25 70.25, 84.34 93.56 3.30 22
8 12/19/2015 06:58:46 -69.40,-109.13 87.28 12/19/2015 06:59:53 -69.41,-107.09 87.30 80.02 67
9 12/21/2015 21:36:06 -70.29, 32.71 86.37 12/21/2015 21:35:34 -70.32, 32.69 86.33 3.07 32
10 12/21/2015 22:25:33 70.18,-159.80 93.53 12/21/2015 22:26:17 70.17,-159.76 93.51 2.47 44
11 12/24/2015 13:03:02 70.57, -18.63 93.90 12/24/2015 13:01:50 70.66, -19.40 94.01 29.90 72
12 12/24/2015 13:52:36 -70.25, 148.52 86.43 12/24/2015 13:52:26 -70.24, 148.58 86.43 2.34 10
13 12/24/2015 14:42:03 70.14, -43.99
